IRIDIUM 106 1 41917U 17003A 26121.69942411 .00000063 00000+0 15457-4 0 9995 2 41917 86.3929 107.9937 0002568 82.1671 277.9817 14.34217985486545 IRIDIUM 103 1 41918U 17003B 26121.68673876 .00000025 00000+0 19237-5 0 9990 2 41918 86.3927 107.8988 0002372 95.3519 264.7948 14.34217558486566 IRIDIUM 109 1 41919U 17003C 26121.69308115 .00000022 00000+0 77703-6 0 9993 2 41919 86.3929 107.9549 0002304 90.0415 270.1045 14.34217559486532 IRIDIUM 102 1 41920U 17003D 26121.66136816 -.00000002 00000+0 -77367-5 0 9994 2 41920 86.3930 107.8930 0002143 86.8131 273.3310 14.34217455486612 IRIDIUM 105 1 41921U 17003E 26121.82974307 .00000107 00000+0 30883-4 0 9993 2 41921 86.3949 76.2487 0002324 87.4250 272.7212 14.34396924488490 IRIDIUM 104 1 41922U 17003F 26121.67405250 .00000036 00000+0 56840-5 0 9996 2 41922 86.3929 107.9293 0002265 95.5844 264.5611 14.34217795486600 IRIDIUM 114 1 41923U 17003G 26121.68039601 .00000029 00000+0 34119-5 0 9998 2 41923 86.3928 107.9101 0002282 93.1733 266.9723 14.34217838486583 IRIDIUM 108 1 41924U 17003H 26121.84822355 .00000005 00000+0 -51574-5 0 9992 2 41924 86.3943 76.1338 0002082 82.5031 277.6401 14.34217356488467 IRIDIUM 112 1 41925U 17003J 26121.66771071 .00000018 00000+0 -78770-6 0 9993 2 41925 86.3927 107.7598 0002095 91.7610 268.3826 14.34217672486601 IRIDIUM 111 1 41926U 17003K 26121.65502302 .00000150 00000+0 46401-4 0 9992 2 41926 86.3926 107.8344 0002340 89.9887 270.1577 14.34219221486582 IRIDIUM 113 1 42803U 17039A 26121.84429593 -.00000018 00000+0 -13639-4 0 9999 2 42803 86.3982 341.5570 0001940 92.5716 267.5701 14.34217357464542 IRIDIUM 123 1 42804U 17039B 26121.81600676 .00000061 00000+0 14706-4 0 9992 2 42804 86.4014 13.0171 0002336 85.7600 274.3863 14.34217720463306 IRIDIUM 120 1 42805U 17039C 26121.83795359 .00000047 00000+0 96761-5 0 9994 2 42805 86.3974 341.3485 0002193 83.0770 277.0675 14.34217681464539 IRIDIUM 115 1 42806U 17039D 26121.87490534 .00000310 00000+0 86162-4 0 9992 2 42806 86.4510 341.4556 0002478 85.1471 275.0012 14.43279253467588 IRIDIUM 118 1 42807U 17039E 26121.63841273 .00000093 00000+0 26034-4 0 9997 2 42807 86.4011 13.0894 0002176 86.3169 273.8276 14.34218394463273 IRIDIUM 117 1 42808U 17039F 26121.72721034 .00000185 00000+0 59119-4 0 9992 2 42808 86.4009 13.0105 0002307 86.3352 273.8108 14.34217968463311 IRIDIUM 126 1 42809U 17039G 26121.82234921 .00000008 00000+0 -41581-5 0 9998 2 42809 86.4007 13.0209 0002112 88.8680 271.2758 14.34217545463303 IRIDIUM 124 1 42810U 17039H 26121.60075928 .00000120 00000+0 29661-4 0 9994 2 42810 86.4454 309.8524 0002222 89.3281 270.8174 14.43282287468398 IRIDIUM 128 1 42811U 17039J 26121.81308720 .00000237 00000+0 77596-4 0 9996 2 42811 86.3992 44.5297 0002365 80.0407 280.1056 14.34218448463331 IRIDIUM 121 1 42812U 17039K 26121.77161681 .00000274 00000+0 90905-4 0 9995 2 42812 86.4012 13.0697 0002182 82.3803 277.7640 14.34222206463173 IRIDIUM 133 1 42955U 17061A 26121.84480044 .00000007 00000+0 -45489-5 0 9996 2 42955 86.3992 44.6333 0002154 84.5974 275.5468 14.34217486448133 IRIDIUM 100 1 42956U 17061B 26121.83845777 .00000039 00000+0 67855-5 0 9999 2 42956 86.3993 44.5554 0002255 84.0735 276.0718 14.34217477448135 IRIDIUM 122 1 42957U 17061C 26121.80674500 -.00000014 00000+0 -12002-4 0 9999 2 42957 86.3989 44.5689 0002163 86.3981 273.7462 14.34217360448137 IRIDIUM 129 1 42958U 17061D 26121.83211466 -.00000018 00000+0 -13457-4 0 9990 2 42958 86.3989 44.6248 0001881 89.4951 270.6461 14.34217320448150 IRIDIUM 119 1 42959U 17061E 26121.73063368 .00000039 00000+0 68515-5 0 9993 2 42959 86.3994 44.6627 0002235 88.2356 271.9096 14.34217741448153 IRIDIUM 107 1 42960U 17061F 26121.81943037 .00000000 00000+0 -69158-5 0 9997 2 42960 86.3989 44.6466 0002359 85.8390 274.3075 14.34217520448179 IRIDIUM 132 1 42961U 17061G 26121.82577266 .00000034 00000+0 50430-5 0 9995 2 42961 86.3994 44.6237 0002268 84.9767 275.1687 14.34217719448177 IRIDIUM 136 1 42962U 17061H 26121.85748537 .00000035 00000+0 53000-5 0 9997 2 42962 86.3994 44.6170 0002287 87.1101 273.0356 14.34217818448194 IRIDIUM 139 1 42963U 17061J 26121.86382741 -.00000001 00000+0 -75016-5 0 9996 2 42963 86.3993 44.6756 0002236 82.5358 277.6091 14.34218184448206 IRIDIUM 125 1 42964U 17061K 26121.85114307 .00000044 00000+0 85919-5 0 9995 2 42964 86.3998 44.7412 0002512 95.5243 264.6239 14.34217872448210 IRIDIUM 135 1 43070U 17083A 26121.89503707 -.00000019 00000+0 -13968-4 0 9996 2 43070 86.3976 341.3754 0002044 86.0900 274.0529 14.34217293437510 IRIDIUM 138 1 43071U 17083B 26121.85063824 .00000014 00000+0 -19930-5 0 9994 2 43071 86.3988 341.0825 0001982 95.8820 264.2601 14.34217622437494 IRIDIUM 116 1 43072U 17083C 26121.53987356 .00000291 00000+0 96704-4 0 9994 2 43072 86.3977 341.5109 0002293 78.9533 281.1921 14.34213290437481 IRIDIUM 130 1 43073U 17083D 26121.64767616 .00000008 00000+0 -41203-5 0 9994 2 43073 86.3984 341.7360 0002274 83.9765 276.1689 14.34217510437443 IRIDIUM 151 1 43074U 17083E 26121.69207377 .00000044 00000+0 85971-5 0 9992 2 43074 86.3980 341.5039 0002157 84.8776 275.2666 14.34217838437474 IRIDIUM 134 1 43075U 17083F 26121.86966640 .00000020 00000+0 19656-6 0 9999 2 43075 86.3979 341.4368 0002146 86.0015 274.1426 14.34217629437464 IRIDIUM 137 1 43076U 17083G 26121.88235115 .00000002 00000+0 -63280-5 0 9990 2 43076 86.3978 341.5231 0001824 72.3342 287.8053 14.34217331437532 IRIDIUM 141 1 43077U 17083H 26121.73647183 .00000230 00000+0 75138-4 0 9993 2 43077 86.3978 341.4179 0002100 88.3879 271.7558 14.34217290437517 IRIDIUM 153 1 43078U 17083J 26121.75841882 .00000000 00000+0 -72197-5 0 9997 2 43078 86.3932 309.8964 0002099 95.6103 264.5332 14.34217483438623 IRIDIUM 131 1 43079U 17083K 26121.86332369 .00000030 00000+0 37894-5 0 9992 2 43079 86.3984 341.5477 0002084 87.4116 272.7318 14.34217687437462 IRIDIUM 144 1 43249U 18030A 26121.55545880 .00000072 00000+0 18710-4 0 9995 2 43249 86.3930 309.9117 0002191 85.9641 274.1805 14.34218000423457 IRIDIUM 149 1 43250U 18030B 26121.77110654 .00000064 00000+0 15938-4 0 9998 2 43250 86.3929 309.7890 0002084 91.3091 268.8343 14.34218026423505 IRIDIUM 157 1 43251U 18030C 26121.79013167 .00000011 00000+0 -31496-5 0 9993 2 43251 86.3929 309.8330 0002169 89.2678 270.8767 14.34217855423486 IRIDIUM 140 1 43252U 18030D 26121.59985557 .00000083 00000+0 22514-4 0 9991 2 43252 86.3932 309.9255 0002226 89.0083 271.1368 14.34218356423512 IRIDIUM 145 1 43253U 18030E 26121.79647438 .00000030 00000+0 34944-5 0 9990 2 43253 86.3932 309.8156 0002277 81.4364 278.7090 14.34217995423474 IRIDIUM 146 1 43254U 18030F 26121.77744635 .00000023 00000+0 10896-5 0 9998 2 43254 86.3930 309.8357 0002201 86.5522 273.5925 14.34217964423482 IRIDIUM 148 1 43255U 18030G 26121.53644589 .00000140 00000+0 42914-4 0 9995 2 43255 86.3933 309.9791 0002050 88.0834 272.0596 14.34218485423481 IRIDIUM 142 1 43256U 18030H 26121.57450259 .00000067 00000+0 16823-4 0 9997 2 43256 86.3929 309.8539 0002246 84.4163 275.7289 14.34218012423450 IRIDIUM 150 1 43257U 18030J 26121.75207578 .00000015 00000+0 -17928-5 0 9994 2 43257 86.3933 309.8943 0002071 88.2510 271.8923 14.34217643423506 IRIDIUM 143 1 43258U 18030K 26121.80281750 .00000019 00000+0 -40449-6 0 9994 2 43258 86.3935 309.9639 0002109 86.2185 273.9252 14.34217511423445 IRIDIUM 161 1 43478U 18047C 26121.44000830 .00000209 00000+0 56034-4 0 9999 2 43478 86.4449 108.0202 0002073 92.2399 267.9039 14.43278831418394 IRIDIUM 152 1 43479U 18047D 26121.70576652 -.00000014 00000+0 -12185-4 0 9994 2 43479 86.3926 107.7698 0002133 91.7115 268.4325 14.34217390415828 IRIDIUM 147 1 43480U 18047E 26121.50280322 .00000019 00000+0 -16309-6 0 9998 2 43480 86.3925 107.8590 0002313 86.0267 274.1193 14.34217775415796 IRIDIUM 110 1 43481U 18047F 26121.71845095 .00000058 00000+0 13613-4 0 9991 2 43481 86.3928 107.8594 0002033 96.6085 263.5342 14.34217784415819 IRIDIUM 162 1 43482U 18047G 26121.71102733 .00000063 00000+0 12722-4 0 9993 2 43482 86.4448 107.7983 0002427 91.3622 268.7857 14.43278856418420 IRIDIUM 160 1 43569U 18061A 26121.59451850 .00000165 00000+0 52020-4 0 9996 2 43569 86.3947 76.2750 0002177 86.7868 273.3576 14.34217084406695 IRIDIUM 166 1 43570U 18061B 26121.82920807 .00000251 00000+0 82454-4 0 9997 2 43570 86.3947 76.1279 0002329 83.1086 277.0375 14.34220741406753 IRIDIUM 158 1 43571U 18061C 26121.86725149 -.00000008 00000+0 -99759-5 0 9993 2 43571 86.3945 76.1223 0002211 88.5505 271.5944 14.34217320406723 IRIDIUM 165 1 43572U 18061D 26121.82285316 .00000008 00000+0 -40870-5 0 9996 2 43572 86.3948 76.1859 0002283 83.0753 277.0703 14.34217499406749 IRIDIUM 155 1 43573U 18061E 26121.85456657 .00000005 00000+0 -53010-5 0 9995 2 43573 86.3944 76.0443 0002274 86.2813 273.8642 14.34217330406713 IRIDIUM 154 1 43574U 18061F 26121.83553778 .00000020 00000+0 -89429-7 0 9998 2 43574 86.3950 76.1834 0002260 82.2017 277.9435 14.34217666406765 IRIDIUM 163 1 43575U 18061G 26121.81650919 .00000052 00000+0 11392-4 0 9997 2 43575 86.3946 76.1080 0002248 89.2621 270.8833 14.34217012406734 IRIDIUM 156 1 43576U 18061H 26121.86090904 .00000017 00000+0 -99810-6 0 9990 2 43576 86.3946 76.0967 0002417 85.1314 275.0158 14.34217600406730 IRIDIUM 164 1 43577U 18061J 26121.84187999 .00000122 00000+0 36637-4 0 9992 2 43577 86.3947 76.1443 0002203 81.6209 278.5237 14.34218185406778 IRIDIUM 159 1 43578U 18061K 26121.81016757 .00000273 00000+0 90330-4 0 9990 2 43578 86.3945 76.0953 0002181 88.0081 272.1364 14.34218459406737 IRIDIUM 180 1 43922U 19002A 26121.80966338 .00000122 00000+0 36442-4 0 9994 2 43922 86.4013 12.9805 0002087 86.6939 273.4495 14.34217603382342 IRIDIUM 176 1 43923U 19002B 26121.73704794 .00000711 00000+0 10879-3 0 9992 2 43923 86.6134 12.9611 0002371 79.4807 280.6677 14.72247564392416 IRIDIUM 168 1 43924U 19002C 26121.80332250 .00000252 00000+0 82840-4 0 9993 2 43924 86.4012 13.0588 0002168 86.1638 273.9806 14.34218283382328 IRIDIUM 173 1 43925U 19002D 26121.79063635 -.00000022 00000+0 -14856-4 0 9999 2 43925 86.4005 12.9549 0002123 87.6049 272.5389 14.34217334382304 IRIDIUM 169 1 43926U 19002E 26121.85854514 .00000186 00000+0 54262-4 0 9995 2 43926 86.4252 44.5531 0002908 89.1734 270.9797 14.38607066383563 IRIDIUM 172 1 43927U 19002F 26121.64475222 .00000146 00000+0 45161-4 0 9992 2 43927 86.4013 13.0238 0002122 86.5415 273.6023 14.34216761382294 IRIDIUM 175 1 43928U 19002G 26121.55720550 .00000113 00000+0 27458-4 0 9993 2 43928 86.4485 310.0267 0004429 46.1768 313.9798 14.43591296392258 IRIDIUM 171 1 43929U 19002H 26121.69549737 .00000001 00000+0 -66799-5 0 9994 2 43929 86.4015 13.3034 0002171 81.6708 278.4734 14.34217548382296 IRIDIUM 170 1 43930U 19002J 26121.40337564 .00000677 00000+0 10346-3 0 9991 2 43930 86.6131 13.1031 0002212 85.6448 274.5022 14.72260027392374 IRIDIUM 167 1 43931U 19002K 26121.75892370 .00000049 00000+0 10373-4 0 9995 2 43931 86.4011 12.9982 0002457 80.4905 279.6568 14.34217810382307 IRIDIUM 181 1 56726U 23068S 26121.86375209 .00000332 00000+0 92671-4 0 9993 2 56726 86.4486 76.1508 0002084 82.0399 278.1038 14.43310098155751 IRIDIUM 177 1 56727U 23068T 26121.88033083 .00000999 00000+0 12794-3 0 9993 2 56727 86.1987 350.7882 0002358 93.0321 267.1170 14.80246184159510 IRIDIUM 174 1 56728U 23068U 26121.73086582 .00000833 00000+0 12813-3 0 9999 2 56728 86.6140 13.1088 0002366 90.3555 269.7933 14.72253632159188 IRIDIUM 178 1 56729U 23068V 26121.73417711 .00001295 00000+0 16696-3 0 9998 2 56729 86.6562 44.7644 0002347 80.3424 279.8062 14.80235276159490 IRIDIUM 179 1 56730U 23068W 26121.86401103 .00001217 00000+0 15672-3 0 9999 2 56730 86.6789 53.5529 0002711 80.1475 280.0052 14.80233459159519